owner,sensor,date,latitude,longitude,vertical_datum,mass_concentration_of_oxygen_in_sea_water,qcFlag 
SCCF RECON,ioos:station:SCCF:16:1,2009-12-01T00:00:00Z,26.4345,-81.9647,2.787,7.19,1111122 
SCCF RECON,ioos:station:SCCF:16:1,2009-12-01T01:00:00Z,26.4345,-81.9647,2.909,7.17,1111122 
SCCF RECON,ioos:station:SCCF:16:1,2009-12-01T02:00:00Z,26.4345,-81.9647,3.002,7.34,1111122 
SCCF RECON,ioos:station:SCCF:16:1,2009-12-01T03:00:00Z,26.4345,-81.9647,3.037,7.33,1111122 
SCCF RECON,ioos:station:SCCF:16:1,2009-12-01T04:00:00Z,26.4345,-81.9647,3.029,7.47,1111122 
SCCF RECON,ioos:station:SCCF:16:1,2009-12-01T05:00:00Z,26.4345,-81.9647,2.9,7.41,1111122 
SCCF RECON,ioos:station:SCCF:16:1,2009-12-01T06:00:00Z,26.4345,-81.9647,2.671,7.3,1111122 
SCCF RECON,ioos:station:SCCF:16:1,2009-12-01T07:00:00Z,26.4345,-81.9647,2.413,7.11,1111122 
SCCF RECON,ioos:station:SCCF:16:1,2009-12-01T08:00:00Z,26.4345,-81.9647,2.183,7.12,1111122 
SCCF RECON,ioos:station:SCCF:16:1,2009-12-01T09:00:00Z,26.4345,-81.9647,1.973,6.93,1111122 
SCCF RECON,ioos:station:SCCF:16:1,2009-12-01T10:00:00Z,26.4345,-81.9647,1.836,6.95,1111122 
SCCF RECON,ioos:station:SCCF:16:1,2009-12-01T11:00:00Z,26.4345,-81.9647,1.831,6.88,1111122 
SCCF RECON,ioos:station:SCCF:16:1,2009-12-01T12:00:00Z,26.4345,-81.9647,2.037,6.82,1111122 
SCCF RECON,ioos:station:SCCF:16:1,2009-12-01T13:00:00Z,26.4345,-81.9647,2.325,6.93,1111122 
SCCF RECON,ioos:station:SCCF:16:1,2009-12-01T14:00:00Z,26.4345,-81.9647,2.471,6.92,1111122 
SCCF RECON,ioos:station:SCCF:16:1,2009-12-01T15:00:00Z,26.4345,-81.9647,2.609,7.34,1111122 
SCCF RECON,ioos:station:SCCF:16:1,2009-12-01T16:00:00Z,26.4345,-81.9647,2.754,7.47,1111122 
SCCF RECON,ioos:station:SCCF:16:1,2009-12-01T17:00:00Z,26.4345,-81.9647,2.833,7.52,1111122 
SCCF RECON,ioos:station:SCCF:16:1,2009-12-01T18:00:00Z,26.4345,-81.9647,2.761,7.6,1111122 
SCCF RECON,ioos:station:SCCF:16:1,2009-12-01T19:00:00Z,26.4345,-81.9647,2.69,7.73,1111122 
SCCF RECON,ioos:station:SCCF:16:1,2009-12-01T20:00:00Z,26.4345,-81.9647,2.592,7.47,1111122 
SCCF RECON,ioos:station:SCCF:16:1,2009-12-01T21:00:00Z,26.4345,-81.9647,2.563,7.72,1111122 
SCCF RECON,ioos:station:SCCF:16:1,2009-12-01T22:00:00Z,26.4345,-81.9647,2.573,7.73,1111122 
SCCF RECON,ioos:station:SCCF:16:1,2009-12-01T23:00:00Z,26.4345,-81.9647,2.589,7.52,1111122 
SCCF RECON,ioos:station:SCCF:16:1,2009-12-02T00:00:00Z,26.4345,-81.9647,2.728,7.82,1111122 
SCCF RECON,ioos:station:SCCF:16:1,2009-12-02T01:00:00Z,26.4345,-81.9647,2.905,7.86,1111122 
SCCF RECON,ioos:station:SCCF:16:1,2009-12-02T02:00:00Z,26.4345,-81.9647,3.052,7.68,1111122 
SCCF RECON,ioos:station:SCCF:16:1,2009-12-02T03:00:00Z,26.4345,-81.9647,3.129,7.64,1111122 
SCCF RECON,ioos:station:SCCF:16:1,2009-12-02T04:00:00Z,26.4345,-81.9647,3.098,7.6,1111122 
SCCF RECON,ioos:station:SCCF:16:1,2009-12-02T05:00:00Z,26.4345,-81.9647,3.003,7.49,1111122 
SCCF RECON,ioos:station:SCCF:16:1,2009-12-02T06:00:00Z,26.4345,-81.9647,2.876,7.33,1111122 
SCCF RECON,ioos:station:SCCF:16:1,2009-12-02T07:00:00Z,26.4345,-81.9647,2.653,7.32,1111122 
SCCF RECON,ioos:station:SCCF:16:1,2009-12-02T08:00:00Z,26.4345,-81.9647,2.405,7.25,1111122 
SCCF RECON,ioos:station:SCCF:16:1,2009-12-02T09:00:00Z,26.4345,-81.9647,2.197,7.1,1111122 
SCCF RECON,ioos:station:SCCF:16:1,2009-12-02T10:00:00Z,26.4345,-81.9647,2.009,7.03,1111122 
SCCF RECON,ioos:station:SCCF:16:1,2009-12-02T11:00:00Z,26.4345,-81.9647,1.876,6.89,1111122 
SCCF RECON,ioos:station:SCCF:16:1,2009-12-02T12:00:00Z,26.4345,-81.9647,1.996,6.77,1111122 
SCCF RECON,ioos:station:SCCF:16:1,2009-12-02T13:00:00Z,26.4345,-81.9647,2.203,6.6,1111122 
SCCF RECON,ioos:station:SCCF:16:1,2009-12-02T14:00:00Z,26.4345,-81.9647,2.499,6.81,1111122 
SCCF RECON,ioos:station:SCCF:16:1,2009-12-02T15:00:00Z,26.4345,-81.9647,2.677,6.89,1111122 
SCCF RECON,ioos:station:SCCF:16:1,2009-12-02T16:00:00Z,26.4345,-81.9647,2.799,6.99,1111122 
SCCF RECON,ioos:station:SCCF:16:1,2009-12-02T17:00:00Z,26.4345,-81.9647,2.836,7.08,1111122 
SCCF RECON,ioos:station:SCCF:16:1,2009-12-02T18:00:00Z,26.4345,-81.9647,2.882,7.13,1111122 
SCCF RECON,ioos:station:SCCF:16:1,2009-12-02T19:00:00Z,26.4345,-81.9647,2.829,7.1,1111122 
SCCF RECON,ioos:station:SCCF:16:1,2009-12-02T20:00:00Z,26.4345,-81.9647,2.783,7.21,1111122 
SCCF RECON,ioos:station:SCCF:16:1,2009-12-02T21:00:00Z,26.4345,-81.9647,2.751,7.17,1111122 
SCCF RECON,ioos:station:SCCF:16:1,2009-12-02T22:00:00Z,26.4345,-81.9647,2.683,7.03,1111122 
SCCF RECON,ioos:station:SCCF:16:1,2009-12-02T23:00:00Z,26.4345,-81.9647,2.64,6.96,1111122 
SCCF RECON,ioos:station:SCCF:16:1,2009-12-03T00:00:00Z,26.4345,-81.9647,2.709,6.9,1111122 
SCCF RECON,ioos:station:SCCF:16:1,2009-12-03T01:00:00Z,26.4345,-81.9647,2.838,6.83,1111122 
SCCF RECON,ioos:station:SCCF:16:1,2009-12-03T02:00:00Z,26.4345,-81.9647,2.923,7.03,1111122 
SCCF RECON,ioos:station:SCCF:16:1,2009-12-03T03:00:00Z,26.4345,-81.9647,3.058,6.99,1111122 
SCCF RECON,ioos:station:SCCF:16:1,2009-12-03T04:00:00Z,26.4345,-81.9647,3.106,6.9,1111122 
SCCF RECON,ioos:station:SCCF:16:1,2009-12-03T05:00:00Z,26.4345,-81.9647,3.077,6.81,1111122 
SCCF RECON,ioos:station:SCCF:16:1,2009-12-03T06:00:00Z,26.4345,-81.9647,3.017,6.71,1111122 
SCCF RECON,ioos:station:SCCF:16:1,2009-12-03T07:00:00Z,26.4345,-81.9647,2.829,6.66,1111122 
SCCF RECON,ioos:station:SCCF:16:1,2009-12-03T08:00:00Z,26.4345,-81.9647,2.603,6.7,1111122 
SCCF RECON,ioos:station:SCCF:16:1,2009-12-03T09:00:00Z,26.4345,-81.9647,2.382,6.68,1111122 
SCCF RECON,ioos:station:SCCF:16:1,2009-12-03T10:00:00Z,26.4345,-81.9647,2.106,6.51,1111122 
SCCF RECON,ioos:station:SCCF:16:1,2009-12-03T11:00:00Z,26.4345,-81.9647,1.829,6.5,1111122 
SCCF RECON,ioos:station:SCCF:16:1,2009-12-03T12:00:00Z,26.4345,-81.9647,1.736,6.3,1111122 
SCCF RECON,ioos:station:SCCF:16:1,2009-12-03T13:00:00Z,26.4345,-81.9647,1.882,6.13,1111122 
SCCF RECON,ioos:station:SCCF:16:1,2009-12-03T14:00:00Z,26.4345,-81.9647,2.168,6.32,1111122 
SCCF RECON,ioos:station:SCCF:16:1,2009-12-03T15:00:00Z,26.4345,-81.9647,2.409,6.21,1111122 
SCCF RECON,ioos:station:SCCF:16:1,2009-12-03T16:00:00Z,26.4345,-81.9647,2.541,6.42,1111122 
SCCF RECON,ioos:station:SCCF:16:1,2009-12-03T17:00:00Z,26.4345,-81.9647,2.665,6.45,1111122 
SCCF RECON,ioos:station:SCCF:16:1,2009-12-03T18:00:00Z,26.4345,-81.9647,2.718,6.51,1111122 
SCCF RECON,ioos:station:SCCF:16:1,2009-12-03T19:00:00Z,26.4345,-81.9647,2.697,6.68,1111122 
SCCF RECON,ioos:station:SCCF:16:1,2009-12-03T20:00:00Z,26.4345,-81.9647,2.668,6.68,1111122 
SCCF RECON,ioos:station:SCCF:16:1,2009-12-03T21:00:00Z,26.4345,-81.9647,2.587,6.44,1111122 
SCCF RECON,ioos:station:SCCF:16:1,2009-12-03T22:00:00Z,26.4345,-81.9647,2.537,6.38,1111122 
SCCF RECON,ioos:station:SCCF:16:1,2009-12-03T23:00:00Z,26.4345,-81.9647,2.493,6.52,1111122 
SCCF RECON,ioos:station:SCCF:16:1,2009-12-04T00:00:00Z,26.4345,-81.9647,2.477,6.47,1111122 
SCCF RECON,ioos:station:SCCF:16:1,2009-12-04T01:00:00Z,26.4345,-81.9647,2.592,6.4,1111122 
SCCF RECON,ioos:station:SCCF:16:1,2009-12-04T02:00:00Z,26.4345,-81.9647,2.702,6.54,1111122 
SCCF RECON,ioos:station:SCCF:16:1,2009-12-04T03:00:00Z,26.4345,-81.9647,2.845,6.6,1111122 
SCCF RECON,ioos:station:SCCF:16:1,2009-12-04T04:00:00Z,26.4345,-81.9647,2.952,6.5,1111122 
SCCF RECON,ioos:station:SCCF:16:1,2009-12-04T05:00:00Z,26.4345,-81.9647,2.952,6.46,1111122 
SCCF RECON,ioos:station:SCCF:16:1,2009-12-04T06:00:00Z,26.4345,-81.9647,2.929,6.44,1111122 
SCCF RECON,ioos:station:SCCF:16:1,2009-12-04T07:00:00Z,26.4345,-81.9647,2.763,6.34,1111122 
SCCF RECON,ioos:station:SCCF:16:1,2009-12-04T08:00:00Z,26.4345,-81.9647,2.602,6.3,1111122 
SCCF RECON,ioos:station:SCCF:16:1,2009-12-04T09:00:00Z,26.4345,-81.9647,2.357,6.14,1111122 
SCCF RECON,ioos:station:SCCF:16:1,2009-12-04T10:00:00Z,26.4345,-81.9647,2.09,5.98,1111122 
SCCF RECON,ioos:station:SCCF:16:1,2009-12-04T11:00:00Z,26.4345,-81.9647,1.886,5.93,1111122 
SCCF RECON,ioos:station:SCCF:16:1,2009-12-04T12:00:00Z,26.4345,-81.9647,1.687,5.92,1111122 
SCCF RECON,ioos:station:SCCF:16:1,2009-12-04T13:00:00Z,26.4345,-81.9647,1.571,5.86,1111122 
SCCF RECON,ioos:station:SCCF:16:1,2009-12-04T14:00:00Z,26.4345,-81.9647,1.771,5.91,1111122 
SCCF RECON,ioos:station:SCCF:16:1,2009-12-04T15:00:00Z,26.4345,-81.9647,2.048,5.93,1111122 
SCCF RECON,ioos:station:SCCF:16:1,2009-12-04T16:00:00Z,26.4345,-81.9647,2.284,6.02,1111122 
SCCF RECON,ioos:station:SCCF:16:1,2009-12-04T17:00:00Z,26.4345,-81.9647,2.413,6.09,1111122 
SCCF RECON,ioos:station:SCCF:16:1,2009-12-04T18:00:00Z,26.4345,-81.9647,2.496,6.18,1111122 
SCCF RECON,ioos:station:SCCF:16:1,2009-12-04T19:00:00Z,26.4345,-81.9647,2.572,6.22,1111122 
SCCF RECON,ioos:station:SCCF:16:1,2009-12-04T20:00:00Z,26.4345,-81.9647,2.591,6.29,1111122 
SCCF RECON,ioos:station:SCCF:16:1,2009-12-04T21:00:00Z,26.4345,-81.9647,2.586,6.24,1111122 
SCCF RECON,ioos:station:SCCF:16:1,2009-12-04T22:00:00Z,26.4345,-81.9647,2.438,6.25,1111122 
SCCF RECON,ioos:station:SCCF:16:1,2009-12-04T23:00:00Z,26.4345,-81.9647,2.356,6.13,1111122 
SCCF RECON,ioos:station:SCCF:16:1,2009-12-05T00:00:00Z,26.4345,-81.9647,2.358,5.98,1111122 
SCCF RECON,ioos:station:SCCF:16:1,2009-12-05T01:00:00Z,26.4345,-81.9647,2.304,5.99,1111122 
SCCF RECON,ioos:station:SCCF:16:1,2009-12-05T02:00:00Z,26.4345,-81.9647,2.428,6.0,1111122 
SCCF RECON,ioos:station:SCCF:16:1,2009-12-05T03:00:00Z,26.4345,-81.9647,2.604,6.12,1111122 
SCCF RECON,ioos:station:SCCF:16:1,2009-12-05T04:00:00Z,26.4345,-81.9647,2.769,6.33,1111122 
SCCF RECON,ioos:station:SCCF:16:1,2009-12-05T05:00:00Z,26.4345,-81.9647,2.834,6.4,1111122 
SCCF RECON,ioos:station:SCCF:16:1,2009-12-05T06:00:00Z,26.4345,-81.9647,2.912,6.44,1111122 
SCCF RECON,ioos:station:SCCF:16:1,2009-12-05T07:00:00Z,26.4345,-81.9647,2.777,6.35,1111122 
SCCF RECON,ioos:station:SCCF:16:1,2009-12-05T08:00:00Z,26.4345,-81.9647,2.747,6.33,1111122 
SCCF RECON,ioos:station:SCCF:16:1,2009-12-05T09:00:00Z,26.4345,-81.9647,2.622,6.19,1111122 
SCCF RECON,ioos:station:SCCF:16:1,2009-12-05T10:00:00Z,26.4345,-81.9647,2.449,6.23,1111122 
SCCF RECON,ioos:station:SCCF:16:1,2009-12-05T11:00:00Z,26.4345,-81.9647,2.208,6.2,1111122 
SCCF RECON,ioos:station:SCCF:16:1,2009-12-05T12:00:00Z,26.4345,-81.9647,1.993,6.14,1111122 
SCCF RECON,ioos:station:SCCF:16:1,2009-12-05T13:00:00Z,26.4345,-81.9647,1.898,6.04,1111122 
SCCF RECON,ioos:station:SCCF:16:1,2009-12-05T14:00:00Z,26.4345,-81.9647,1.952,6.09,1111122 
SCCF RECON,ioos:station:SCCF:16:1,2009-12-05T15:00:00Z,26.4345,-81.9647,2.184,6.06,1111122 
SCCF RECON,ioos:station:SCCF:16:1,2009-12-05T16:00:00Z,26.4345,-81.9647,2.478,6.13,1111122 
SCCF RECON,ioos:station:SCCF:16:1,2009-12-05T17:00:00Z,26.4345,-81.9647,2.522,6.16,1111122 
SCCF RECON,ioos:station:SCCF:16:1,2009-12-05T18:00:00Z,26.4345,-81.9647,2.529,6.28,1111122 
SCCF RECON,ioos:station:SCCF:16:1,2009-12-05T19:00:00Z,26.4345,-81.9647,2.594,6.37,1111122 
SCCF RECON,ioos:station:SCCF:16:1,2009-12-05T20:00:00Z,26.4345,-81.9647,2.443,6.33,1111122 
SCCF RECON,ioos:station:SCCF:16:1,2009-12-05T21:00:00Z,26.4345,-81.9647,2.443,6.24,1111122 
SCCF RECON,ioos:station:SCCF:16:1,2009-12-05T22:00:00Z,26.4345,-81.9647,2.452,6.33,1111122 
SCCF RECON,ioos:station:SCCF:16:1,2009-12-05T23:00:00Z,26.4345,-81.9647,2.251,6.33,1111122 
SCCF RECON,ioos:station:SCCF:16:1,2009-12-06T00:00:00Z,26.4345,-81.9647,2.155,6.34,1111122 
SCCF RECON,ioos:station:SCCF:16:1,2009-12-06T01:00:00Z,26.4345,-81.9647,2.095,6.31,1111122 
SCCF RECON,ioos:station:SCCF:16:1,2009-12-06T02:00:00Z,26.4345,-81.9647,2.18,6.35,1111122 
SCCF RECON,ioos:station:SCCF:16:1,2009-12-06T03:00:00Z,26.4345,-81.9647,2.228,6.32,1111122 
SCCF RECON,ioos:station:SCCF:16:1,2009-12-06T04:00:00Z,26.4345,-81.9647,2.491,6.42,1111122 
SCCF RECON,ioos:station:SCCF:16:1,2009-12-06T05:00:00Z,26.4345,-81.9647,2.636,6.45,1111122 
SCCF RECON,ioos:station:SCCF:16:1,2009-12-06T06:00:00Z,26.4345,-81.9647,2.671,6.5,1111122 
SCCF RECON,ioos:station:SCCF:16:1,2009-12-06T07:00:00Z,26.4345,-81.9647,2.66,6.56,1111122 
SCCF RECON,ioos:station:SCCF:16:1,2009-12-06T08:00:00Z,26.4345,-81.9647,2.629,6.56,1111122 
SCCF RECON,ioos:station:SCCF:16:1,2009-12-06T09:00:00Z,26.4345,-81.9647,2.555,6.45,1111122 
SCCF RECON,ioos:station:SCCF:16:1,2009-12-06T10:00:00Z,26.4345,-81.9647,2.409,6.41,1111122 
SCCF RECON,ioos:station:SCCF:16:1,2009-12-06T11:00:00Z,26.4345,-81.9647,2.284,6.39,1111122 
SCCF RECON,ioos:station:SCCF:16:1,2009-12-06T12:00:00Z,26.4345,-81.9647,2.115,6.37,1111122 
SCCF RECON,ioos:station:SCCF:16:1,2009-12-06T13:00:00Z,26.4345,-81.9647,1.944,6.37,1111122 
SCCF RECON,ioos:station:SCCF:16:1,2009-12-06T14:00:00Z,26.4345,-81.9647,1.845,6.44,1111122 
SCCF RECON,ioos:station:SCCF:16:1,2009-12-06T15:00:00Z,26.4345,-81.9647,1.903,6.5,1111122 
SCCF RECON,ioos:station:SCCF:16:1,2009-12-06T16:00:00Z,26.4345,-81.9647,2.083,6.5,1111122 
SCCF RECON,ioos:station:SCCF:16:1,2009-12-06T17:00:00Z,26.4345,-81.9647,2.257,6.56,1111122 
SCCF RECON,ioos:station:SCCF:16:1,2009-12-06T18:00:00Z,26.4345,-81.9647,2.407,6.65,1111122 
SCCF RECON,ioos:station:SCCF:16:1,2009-12-06T19:00:00Z,26.4345,-81.9647,2.544,6.69,1111122 
SCCF RECON,ioos:station:SCCF:16:1,2009-12-06T20:00:00Z,26.4345,-81.9647,2.62,6.79,1111122 
SCCF RECON,ioos:station:SCCF:16:1,2009-12-06T21:00:00Z,26.4345,-81.9647,2.723,6.83,1111122 
SCCF RECON,ioos:station:SCCF:16:1,2009-12-06T22:00:00Z,26.4345,-81.9647,2.716,6.92,1111122 
SCCF RECON,ioos:station:SCCF:16:1,2009-12-06T23:00:00Z,26.4345,-81.9647,2.611,6.78,1111122 
SCCF RECON,ioos:station:SCCF:16:1,2009-12-07T00:00:00Z,26.4345,-81.9647,2.518,6.55,1111122 
SCCF RECON,ioos:station:SCCF:16:1,2009-12-07T01:00:00Z,26.4345,-81.9647,2.39,6.77,1111122 
SCCF RECON,ioos:station:SCCF:16:1,2009-12-07T02:00:00Z,26.4345,-81.9647,2.363,6.56,1111122 
SCCF RECON,ioos:station:SCCF:16:1,2009-12-07T03:00:00Z,26.4345,-81.9647,2.399,6.65,1111122 
SCCF RECON,ioos:station:SCCF:16:1,2009-12-07T04:00:00Z,26.4345,-81.9647,2.475,6.58,1111122 
SCCF RECON,ioos:station:SCCF:16:1,2009-12-07T05:00:00Z,26.4345,-81.9647,2.628,6.68,1111122 
SCCF RECON,ioos:station:SCCF:16:1,2009-12-07T06:00:00Z,26.4345,-81.9647,2.709,6.76,1111122 
SCCF RECON,ioos:station:SCCF:16:1,2009-12-07T07:00:00Z,26.4345,-81.9647,2.732,6.7,1111122 
SCCF RECON,ioos:station:SCCF:16:1,2009-12-07T08:00:00Z,26.4345,-81.9647,2.764,6.62,1111122 
SCCF RECON,ioos:station:SCCF:16:1,2009-12-07T09:00:00Z,26.4345,-81.9647,2.791,6.57,1111122 
SCCF RECON,ioos:station:SCCF:16:1,2009-12-07T10:00:00Z,26.4345,-81.9647,2.695,6.48,1111122 
SCCF RECON,ioos:station:SCCF:16:1,2009-12-07T11:00:00Z,26.4345,-81.9647,2.581,6.47,1111122 
SCCF RECON,ioos:station:SCCF:16:1,2009-12-07T12:00:00Z,26.4345,-81.9647,2.433,6.56,1111122 
SCCF RECON,ioos:station:SCCF:16:1,2009-12-07T13:00:00Z,26.4345,-81.9647,2.269,6.43,1111122 
SCCF RECON,ioos:station:SCCF:16:1,2009-12-07T14:00:00Z,26.4345,-81.9647,2.104,6.37,1111122 
SCCF RECON,ioos:station:SCCF:16:1,2009-12-07T15:00:00Z,26.4345,-81.9647,2.005,6.42,1111122 
SCCF RECON,ioos:station:SCCF:16:1,2009-12-07T16:00:00Z,26.4345,-81.9647,2.095,6.34,1111122 
SCCF RECON,ioos:station:SCCF:16:1,2009-12-07T17:00:00Z,26.4345,-81.9647,2.225,6.37,1111122 
SCCF RECON,ioos:station:SCCF:16:1,2009-12-07T18:00:00Z,26.4345,-81.9647,2.407,6.42,1111122 
SCCF RECON,ioos:station:SCCF:16:1,2009-12-07T19:00:00Z,26.4345,-81.9647,2.503,6.76,1111122 
SCCF RECON,ioos:station:SCCF:16:1,2009-12-07T20:00:00Z,26.4345,-81.9647,2.6,6.73,1111122 
SCCF RECON,ioos:station:SCCF:16:1,2009-12-07T21:00:00Z,26.4345,-81.9647,2.626,6.81,1111122 
SCCF RECON,ioos:station:SCCF:16:1,2009-12-07T22:00:00Z,26.4345,-81.9647,2.663,6.9,1111122 
SCCF RECON,ioos:station:SCCF:16:1,2009-12-07T23:00:00Z,26.4345,-81.9647,2.668,6.83,1111122 
SCCF RECON,ioos:station:SCCF:16:1,2009-12-08T00:00:00Z,26.4345,-81.9647,2.575,6.64,1111122 
SCCF RECON,ioos:station:SCCF:16:1,2009-12-08T01:00:00Z,26.4345,-81.9647,2.457,6.54,1111122 
SCCF RECON,ioos:station:SCCF:16:1,2009-12-08T02:00:00Z,26.4345,-81.9647,2.385,6.54,1111122 
SCCF RECON,ioos:station:SCCF:16:1,2009-12-08T03:00:00Z,26.4345,-81.9647,2.311,6.58,1111122 
SCCF RECON,ioos:station:SCCF:16:1,2009-12-08T04:00:00Z,26.4345,-81.9647,2.329,6.63,1111122 
SCCF RECON,ioos:station:SCCF:16:1,2009-12-08T05:00:00Z,26.4345,-81.9647,2.409,6.5,1111122 
SCCF RECON,ioos:station:SCCF:16:1,2009-12-08T06:00:00Z,26.4345,-81.9647,2.475,6.75,1111122 
SCCF RECON,ioos:station:SCCF:16:1,2009-12-08T07:00:00Z,26.4345,-81.9647,2.567,6.73,1111122 
SCCF RECON,ioos:station:SCCF:16:1,2009-12-08T08:00:00Z,26.4345,-81.9647,2.651,6.77,1111122 
SCCF RECON,ioos:station:SCCF:16:1,2009-12-08T09:00:00Z,26.4345,-81.9647,2.702,6.81,1111122 
SCCF RECON,ioos:station:SCCF:16:1,2009-12-08T10:00:00Z,26.4345,-81.9647,2.743,6.75,1111122 
SCCF RECON,ioos:station:SCCF:16:1,2009-12-08T11:00:00Z,26.4345,-81.9647,2.711,6.63,1111122 
SCCF RECON,ioos:station:SCCF:16:1,2009-12-08T12:00:00Z,26.4345,-81.9647,2.619,6.32,1111122 
SCCF RECON,ioos:station:SCCF:16:1,2009-12-08T13:00:00Z,26.4345,-81.9647,2.504,6.51,1111122 
SCCF RECON,ioos:station:SCCF:16:1,2009-12-08T14:00:00Z,26.4345,-81.9647,2.359,6.62,1111122 
SCCF RECON,ioos:station:SCCF:16:1,2009-12-08T15:00:00Z,26.4345,-81.9647,2.269,6.52,1111122 
SCCF RECON,ioos:station:SCCF:16:1,2009-12-08T16:00:00Z,26.4345,-81.9647,2.239,6.41,1111122 
SCCF RECON,ioos:station:SCCF:16:1,2009-12-08T17:00:00Z,26.4345,-81.9647,2.269,6.39,1111122 
SCCF RECON,ioos:station:SCCF:16:1,2009-12-08T18:00:00Z,26.4345,-81.9647,2.368,6.44,1111122 
SCCF RECON,ioos:station:SCCF:16:1,2009-12-08T19:00:00Z,26.4345,-81.9647,2.537,6.83,1111122 
SCCF RECON,ioos:station:SCCF:16:1,2009-12-08T20:00:00Z,26.4345,-81.9647,2.645,7.38,1111122 
SCCF RECON,ioos:station:SCCF:16:1,2009-12-08T21:00:00Z,26.4345,-81.9647,2.698,7.35,1111122 
SCCF RECON,ioos:station:SCCF:16:1,2009-12-08T22:00:00Z,26.4345,-81.9647,2.763,7.21,1111122 
SCCF RECON,ioos:station:SCCF:16:1,2009-12-08T23:00:00Z,26.4345,-81.9647,2.765,6.93,1111122 
SCCF RECON,ioos:station:SCCF:16:1,2009-12-09T00:00:00Z,26.4345,-81.9647,2.738,6.84,1111122 
SCCF RECON,ioos:station:SCCF:16:1,2009-12-09T01:00:00Z,26.4345,-81.9647,2.652,6.65,1111122 
SCCF RECON,ioos:station:SCCF:16:1,2009-12-09T02:00:00Z,26.4345,-81.9647,2.569,6.59,1111122 
SCCF RECON,ioos:station:SCCF:16:1,2009-12-09T03:00:00Z,26.4345,-81.9647,2.492,6.77,1111122 
SCCF RECON,ioos:station:SCCF:16:1,2009-12-09T04:00:00Z,26.4345,-81.9647,2.412,6.72,1111122 
SCCF RECON,ioos:station:SCCF:16:1,2009-12-09T05:00:00Z,26.4345,-81.9647,2.353,6.77,1111122 
SCCF RECON,ioos:station:SCCF:16:1,2009-12-09T06:00:00Z,26.4345,-81.9647,2.378,6.77,1111122 
SCCF RECON,ioos:station:SCCF:16:1,2009-12-09T07:00:00Z,26.4345,-81.9647,2.483,6.91,1111122 
SCCF RECON,ioos:station:SCCF:16:1,2009-12-09T08:00:00Z,26.4345,-81.9647,2.595,7.09,1111122 
SCCF RECON,ioos:station:SCCF:16:1,2009-12-09T09:00:00Z,26.4345,-81.9647,2.648,6.93,1111122 
SCCF RECON,ioos:station:SCCF:16:1,2009-12-09T10:00:00Z,26.4345,-81.9647,2.687,7.05,1111122 
SCCF RECON,ioos:station:SCCF:16:1,2009-12-09T11:00:00Z,26.4345,-81.9647,2.725,7.11,1111122 
SCCF RECON,ioos:station:SCCF:16:1,2009-12-09T12:00:00Z,26.4345,-81.9647,2.712,6.99,1111122 
SCCF RECON,ioos:station:SCCF:16:1,2009-12-09T13:00:00Z,26.4345,-81.9647,2.638,6.81,1111122 
SCCF RECON,ioos:station:SCCF:16:1,2009-12-09T14:00:00Z,26.4345,-81.9647,2.544,6.57,1111122 
SCCF RECON,ioos:station:SCCF:16:1,2009-12-09T15:00:00Z,26.4345,-81.9647,2.449,6.83,1111122 
SCCF RECON,ioos:station:SCCF:16:1,2009-12-09T16:00:00Z,26.4345,-81.9647,2.362,6.83,1111122 
SCCF RECON,ioos:station:SCCF:16:1,2009-12-09T17:00:00Z,26.4345,-81.9647,2.317,6.84,1111122 
SCCF RECON,ioos:station:SCCF:16:1,2009-12-09T18:00:00Z,26.4345,-81.9647,2.354,6.8,1111122 
SCCF RECON,ioos:station:SCCF:16:1,2009-12-09T19:00:00Z,26.4345,-81.9647,2.461,6.76,1111122 
SCCF RECON,ioos:station:SCCF:16:1,2009-12-09T20:00:00Z,26.4345,-81.9647,2.579,7.06,1111122 
SCCF RECON,ioos:station:SCCF:16:1,2009-12-09T21:00:00Z,26.4345,-81.9647,2.662,7.19,1111122 
SCCF RECON,ioos:station:SCCF:16:1,2009-12-09T22:00:00Z,26.4345,-81.9647,2.731,7.19,1111122 
SCCF RECON,ioos:station:SCCF:16:1,2009-12-09T23:00:00Z,26.4345,-81.9647,2.78,7.84,1111122 
SCCF RECON,ioos:station:SCCF:16:1,2009-12-10T00:00:00Z,26.4345,-81.9647,2.832,7.75,1111122 
SCCF RECON,ioos:station:SCCF:16:1,2009-12-10T01:00:00Z,26.4345,-81.9647,2.792,7.73,1111122 
SCCF RECON,ioos:station:SCCF:16:1,2009-12-10T02:00:00Z,26.4345,-81.9647,2.695,7.67,1111122 
SCCF RECON,ioos:station:SCCF:16:1,2009-12-10T03:00:00Z,26.4345,-81.9647,2.559,7.59,1111122 
SCCF RECON,ioos:station:SCCF:16:1,2009-12-10T04:00:00Z,26.4345,-81.9647,2.426,7.55,1111122 
SCCF RECON,ioos:station:SCCF:16:1,2009-12-10T05:00:00Z,26.4345,-81.9647,2.312,7.33,1111122 
SCCF RECON,ioos:station:SCCF:16:1,2009-12-10T06:00:00Z,26.4345,-81.9647,2.216,7.2,1111122 
SCCF RECON,ioos:station:SCCF:16:1,2009-12-10T07:00:00Z,26.4345,-81.9647,2.25,6.74,1111122 
SCCF RECON,ioos:station:SCCF:16:1,2009-12-10T08:00:00Z,26.4345,-81.9647,2.338,6.5,1111122 
SCCF RECON,ioos:station:SCCF:16:1,2009-12-10T09:00:00Z,26.4345,-81.9647,2.481,6.57,1111122 
SCCF RECON,ioos:station:SCCF:16:1,2009-12-10T10:00:00Z,26.4345,-81.9647,2.55,6.61,1111122 
SCCF RECON,ioos:station:SCCF:16:1,2009-12-10T11:00:00Z,26.4345,-81.9647,2.612,6.63,1111122 
SCCF RECON,ioos:station:SCCF:16:1,2009-12-10T12:00:00Z,26.4345,-81.9647,2.685,6.74,1111122 
SCCF RECON,ioos:station:SCCF:16:1,2009-12-10T13:00:00Z,26.4345,-81.9647,2.704,7.02,1111122 
SCCF RECON,ioos:station:SCCF:16:1,2009-12-10T14:00:00Z,26.4345,-81.9647,2.679,7.04,1111122 
SCCF RECON,ioos:station:SCCF:16:1,2009-12-10T15:00:00Z,26.4345,-81.9647,2.629,7.19,1111122 
SCCF RECON,ioos:station:SCCF:16:1,2009-12-10T16:00:00Z,26.4345,-81.9647,2.558,7.15,1111122 
SCCF RECON,ioos:station:SCCF:16:1,2009-12-10T17:00:00Z,26.4345,-81.9647,2.487,7.31,1111122 
SCCF RECON,ioos:station:SCCF:16:1,2009-12-10T18:00:00Z,26.4345,-81.9647,2.402,7.16,1111122 
SCCF RECON,ioos:station:SCCF:16:1,2009-12-10T19:00:00Z,26.4345,-81.9647,2.399,6.99,1111122 
SCCF RECON,ioos:station:SCCF:16:1,2009-12-10T20:00:00Z,26.4345,-81.9647,2.52,7.02,1111122 
SCCF RECON,ioos:station:SCCF:16:1,2009-12-10T21:00:00Z,26.4345,-81.9647,2.661,7.11,1111122 
SCCF RECON,ioos:station:SCCF:16:1,2009-12-10T22:00:00Z,26.4345,-81.9647,2.757,7.28,1111122 
SCCF RECON,ioos:station:SCCF:16:1,2009-12-10T23:00:00Z,26.4345,-81.9647,2.804,7.46,1111122 
SCCF RECON,ioos:station:SCCF:16:1,2009-12-11T00:00:00Z,26.4345,-81.9647,2.798,7.81,1111122 
SCCF RECON,ioos:station:SCCF:16:1,2009-12-11T01:00:00Z,26.4345,-81.9647,2.757,7.55,1111122 
SCCF RECON,ioos:station:SCCF:16:1,2009-12-11T02:00:00Z,26.4345,-81.9647,2.677,7.42,1111122 
SCCF RECON,ioos:station:SCCF:16:1,2009-12-11T03:00:00Z,26.4345,-81.9647,2.564,7.08,1111122 
SCCF RECON,ioos:station:SCCF:16:1,2009-12-11T04:00:00Z,26.4345,-81.9647,2.41,7.23,1111122 
SCCF RECON,ioos:station:SCCF:16:1,2009-12-11T05:00:00Z,26.4345,-81.9647,2.262,7.03,1111122 
SCCF RECON,ioos:station:SCCF:16:1,2009-12-11T06:00:00Z,26.4345,-81.9647,2.099,6.79,1111122 
SCCF RECON,ioos:station:SCCF:16:1,2009-12-11T07:00:00Z,26.4345,-81.9647,1.966,6.81,1111122 
SCCF RECON,ioos:station:SCCF:16:1,2009-12-11T08:00:00Z,26.4345,-81.9647,1.98,6.71,1111122 
SCCF RECON,ioos:station:SCCF:16:1,2009-12-11T09:00:00Z,26.4345,-81.9647,2.09,6.81,1111122 
SCCF RECON,ioos:station:SCCF:16:1,2009-12-11T10:00:00Z,26.4345,-81.9647,2.187,6.72,1111122 
SCCF RECON,ioos:station:SCCF:16:1,2009-12-11T11:00:00Z,26.4345,-81.9647,2.3,6.84,1111122 
SCCF RECON,ioos:station:SCCF:16:1,2009-12-11T12:00:00Z,26.4345,-81.9647,2.401,6.81,1111122 
SCCF RECON,ioos:station:SCCF:16:1,2009-12-11T13:00:00Z,26.4345,-81.9647,2.536,6.7,1111122 
SCCF RECON,ioos:station:SCCF:16:1,2009-12-11T14:00:00Z,26.4345,-81.9647,2.549,6.71,1111122 
SCCF RECON,ioos:station:SCCF:16:1,2009-12-11T15:00:00Z,26.4345,-81.9647,2.526,6.78,1111122 
SCCF RECON,ioos:station:SCCF:16:1,2009-12-11T16:00:00Z,26.4345,-81.9647,2.478,6.79,1111122 
SCCF RECON,ioos:station:SCCF:16:1,2009-12-11T17:00:00Z,26.4345,-81.9647,2.414,6.87,1111122 
SCCF RECON,ioos:station:SCCF:16:1,2009-12-11T18:00:00Z,26.4345,-81.9647,2.384,6.82,1111122 
SCCF RECON,ioos:station:SCCF:16:1,2009-12-11T19:00:00Z,26.4345,-81.9647,2.372,6.98,1111122 